Overview Statistics Trail Chart Weather Telemetry Raw packets
 

This is the latest recevied weather packets stored in our database for station/object N4DWK. If no packets are shown the sender has not sent any weather packets the latest 10 day(s).

<< 92 93 94 95 96 97 98 >>
Time Temp. Humidity Pressure Rain* Wind** Luminosity Snow
1787936407 30.56° C 67% 1016.2 hPa 0 mm - 592 W/m² -
1787936107 30° C 70% 1016.2 hPa 0 mm - 591 W/m² -
1787935807 29.44° C 68% 1016.3 hPa 0 mm - 478 W/m² -
1787935507 29.44° C 68% 1016.3 hPa 0 mm - 589 W/m² -
1787935207 28.89° C 70% 1016.3 hPa 0 mm - 84 W/m² -
1787934908 28.89° C 72% 1016.3 hPa 0 mm - 62 W/m² -
1787934608 28.33° C 71% 1016.3 hPa 0 mm - 70 W/m² -
1787934307 28.33° C 74% 1016.4 hPa 0 mm - 62 W/m² -
1787934007 28.33° C 72% 1016.5 hPa 0 mm - 60 W/m² -
1787933707 28.33° C 74% 1016.6 hPa 0 mm - 69 W/m² -
1787933408 27.78° C 74% 1016.7 hPa 0 mm - 359 W/m² -
1787933107 27.78° C 74% 1016.7 hPa 0 mm - 70 W/m² -
1787932808 27.78° C 74% 1016.8 hPa 0 mm - 60 W/m² -
1787932507 27.78° C 74% 1016.8 hPa 0 mm - 171 W/m² -
1787932208 27.78° C 75% 1016.8 hPa 0 mm - 225 W/m² -
1787931907 27.22° C 77% 1016.8 hPa 0 mm - 84 W/m² -
1787931607 27.22° C 78% 1016.8 hPa 0 mm - 83 W/m² -
1787931308 27.22° C 79% 1016.8 hPa 0 mm - 83 W/m² -
1787931007 26.67° C 79% 1016.9 hPa 0 mm - 88 W/m² -
1787930707 26.67° C 79% 1016.9 hPa 0 mm - 81 W/m² -
1787930407 26.67° C 79% 1016.8 hPa 0 mm - 88 W/m² -
1787930113 26.67° C 78% 1016.9 hPa 0 mm - 76 W/m² -
1787929808 26.11° C 80% 1016.8 hPa 0 mm - 127 W/m² -
1787929507 26.11° C 79% 1016.8 hPa 0 mm - 134 W/m² -
1787929207 26.11° C 79% 1016.7 hPa 0 mm - 81 W/m² -

* Rain latest hour (hover to see other rain measurements)
** Current wind speed in m/s (hover to see current wind gust speed)